MST,Max TemperatureF,Mean TemperatureF,Min TemperatureF,Max Dew PointF,MeanDew PointF,Min DewpointF,Max Humidity, Mean Humidity, Min Humidity, Max Sea Level PressureIn, Mean Sea Level PressureIn, Min Sea Level PressureIn, Max VisibilityMiles, Mean VisibilityMiles, Min VisibilityMiles, Max Wind SpeedMPH, Mean Wind SpeedMPH, Max Gust SpeedMPH,PrecipitationIn, CloudCover, Events, WindDirDegrees
2012-11-1,39,36,33,36,30,27,87,78,65,30.13,29.99,29.91,10,10,5,17,10,22,0.00,8,,112
2012-11-2,41,37,33,37,32,27,93,86,70,30.16,30.03,29.95,10,9,3,15,6,20,0.19,8,,335
2012-11-3,35,34,32,30,28,25,87,78,70,30.22,30.18,30.12,10,10,10,9,5,,0.00,8,,21
2012-11-4,48,42,35,41,35,30,100,87,71,30.27,30.13,30.01,10,9,3,18,8,26,0.04,7,,295
2012-11-5,64,50,35,46,35,30,93,77,49,30.24,30.01,29.77,10,10,7,31,10,38,0.00,5,,230
2012-11-6,51,40,28,30,27,21,87,62,35,30.19,30.12,30.02,10,10,10,18,12,24,0.00,2,,289
2012-11-7,55,42,30,39,33,25,86,64,51,30.00,29.78,29.66,10,10,10,17,6,23,0.00,2,,228
2012-11-8,42,36,30,34,28,27,87,74,65,30.15,30.07,29.92,10,10,2,22,13,26,0.00,8,,24
2012-11-9,30,24,19,27,23,18,93,87,80,30.07,29.96,29.89,10,5,0,23,15,26,0.00,8,,74
2012-11-10,19,14,8,18,10,1,93,80,73,29.95,29.89,29.86,10,8,0,20,13,25,0.00,5,,328
2012-11-11,14,8,3,10,4,-6,86,77,66,30.11,29.99,29.90,10,8,2,24,17,30,0.00,4,,282
2012-11-12,24,10,-4,19,7,-9,100,81,68,30.13,30.11,30.09,10,10,10,13,5,,0.00,2,,204
2012-11-13,35,27,19,28,21,16,93,83,74,30.15,30.12,30.10,10,10,10,12,6,,0.04,2,,202
2012-11-14,37,26,15,28,22,12,100,84,70,30.23,30.07,30.01,10,10,10,14,6,,0.01,0,,202
2012-11-15,35,22,8,28,18,3,100,85,73,30.37,30.28,30.14,10,10,3,10,4,,0.01,0,,207
2012-11-16,37,28,19,30,24,16,100,86,70,30.13,30.01,29.96,10,10,10,14,6,,0.00,0,,196
2012-11-17,42,32,23,34,27,19,100,85,70,30.04,29.98,29.90,10,10,1,9,2,,0.00,2,,206
2012-11-18,44,32,19,34,26,16,100,77,57,30.03,29.85,29.76,10,10,9,16,3,21,0.00,2,,269
2012-11-19,46,34,21,34,27,18,93,76,62,30.11,30.04,29.94,10,10,9,14,6,,0.00,0,,200
2012-11-20,46,37,28,36,31,23,93,78,66,29.94,29.88,29.82,10,10,10,14,8,,0.00,0,,196
2012-11-21,55,40,26,39,32,25,93,84,54,29.82,29.72,29.58,10,10,9,14,3,,0.00,1,,258
2012-11-22,35,24,12,30,15,3,87,75,63,30.56,30.23,29.81,10,10,5,24,13,32,0.00,5,,313
2012-11-23,30,18,6,23,12,1,85,72,59,30.56,30.35,29.99,10,10,10,9,3,,0.00,3,,142
2012-11-24,42,30,19,34,25,16,100,80,61,30.03,29.92,29.85,10,10,10,20,6,23,0.00,3,,256
2012-11-25,26,16,5,25,11,-2,93,80,62,30.34,30.15,30.01,10,10,10,15,6,22,0.00,3,,346
2012-11-26,35,20,6,28,16,0,100,84,70,30.34,30.24,30.12,10,10,10,15,6,17,0.00,2,,206
2012-11-27,33,22,12,25,18,9,100,86,64,30.20,30.15,30.10,10,10,10,9,3,,0.00,0,,243
2012-11-28,39,26,12,28,18,9,93,83,60,30.15,30.05,30.01,10,10,9,10,5,,0.00,0,,95
2012-11-29,24,20,17,21,18,12,93,85,74,30.01,29.97,29.95,10,8,3,14,8,,0.00,6,,85
2012-11-30,37,27,17,32,24,16,100,87,75,29.96,29.75,29.63,10,10,8,7,2,,0.00,2,,156